RH
10 11 16 26 34 38 39 38 42 46 43 39 37 36 40 42 37 25 14 10 9 9 9 8 7 8 8 11 12 11 12 10 10 10 11 13 12 9 9 10 10 11 16 18 17 16 15 15 15 11 9 17 24 25 24 26 24 18 19 18 17 16 13 12 13 12 11 11 10 12 12 7 29 68 81 76 83 92 94 94 92 87 75 78 82 74 89 102
9 11 13 18 25 33 39 38 42 47 44 41 37 35 38 40 40 31 17 10 9 9 8 9 8 8 8 10 11 10 11 9 9 13 16 19 17 12 9 10 9 13 20 21 18 16 14 14 15 10 10 21 26 25 24 27 25 20 21 19 16 15 12 14 13 13 11 11 13 11 13 8 16 57 72 63 76 84 84 95 97 96 93 89 89 83 92 101
7 9 11 13 17 24 35 39 40 46 46 43 38 35 35 37 41 38 25 12 10 11 9 9 9 9 7 7 10 10 9 9 12 18 23 24 21 14 10 10 9 17 23 19 16 14 13 14 12 10 14 24 25 25 23 24 24 19 20 17 15 16 13 16 14 13 13 11 13 10 13 9 9 36 53 55 70 72 73 88 90 94 100 96 96 92 95 101
6 7 9 11 13 15 27 37 39 43 46 44 40 36 34 35 38 41 36 20 11 12 11 11 10 10 8 7 9 8 9 15 18 21 28 29 26 18 10 10 11 18 24 20 16 13 14 14 11 13 19 25 24 24 22 20 22 18 17 16 14 17 14 13 13 12 13 12 13 12 11 9 7 18 36 54 62 58 63 71 67 78 97 98 97 98 97 99
6 6 7 9 10 11 17 29 37 40 43 44 41 36 33 35 35 38 41 32 19 13 12 12 12 11 8 6 8 8 11 23 27 25 29 30 29 23 13 11 13 20 24 21 19 13 16 18 15 20 22 23 23 21 21 19 18 16 16 16 14 17 14 11 12 12 11 12 12 12 9 9 9 17 38 52 41 33 47 57 52 59 79 81 83 97 101 96
6 6 6 7 8 10 12 18 27 34 40 42 41 38 33 33 35 35 37 38 31 24 18 12 11 13 9 7 8 9 11 22 30 27 27 30 29 27 18 12 13 20 24 22 20 14 18 22 20 24 23 21 23 20 20 19 16 14 15 17 15 15 13 11 12 11 11 12 11 11 10 9 8 18 44 53 30 21 37 48 50 62 77 77 80 92 95 88
9 6 5 6 6 8 10 12 16 23 33 39 40 38 34 32 33 34 34 36 35 34 29 17 12 12 9 9 8 10 12 15 25 27 28 32 30 27 22 15 13 17 21 21 20 15 19 23 22 24 22 21 22 20 19 18 16 15 16 17 16 14 13 12 12 11 11 11 10 11 9 10 9 10 34 54 38 27 39 42 48 76 95 95 94 95 92 80
13 9 6 5 6 7 9 10 12 15 22 32 38 38 36 33 32 32 32 35 34 35 35 29 23 17 11 9 9 11 10 11 20 27 30 32 30 29 26 19 15 16 19 21 20 16 18 23 23 22 21 19 21 20 18 17 15 15 16 15 15 14 12 11 10 11 10 10 11 11 9 10 10 7 26 53 45 38 52 51 56 86 101 100 99 98 97 82
15 14 10 6 5 6 8 10 11 12 14 22 33 37 36 33 31 31 29 31 33 32 34 35 34 28 15 8 11 12 10 17 24 27 29 29 29 30 28 22 18 18 19 22 24 18 17 23 23 20 20 19 19 18 15 16 14 14 15 14 13 11 11 10 11 11 10 12 10 10 11 8 14 18 32 61 68 69 78 74 80 95 99 101 100 98 99 89
15 15 14 10 6 6 8 10 11 12 11 15 24 32 35 34 32 30 28 27 27 28 30 33 36 34 24 13 13 12 15 28 29 27 28 25 24 25 27 24 20 20 19 22 23 18 18 23 22 20 21 19 18 16 13 13 12 12 13 14 13 11 12 12 12 12 10 11 9 10 10 13 34 33 30 68 94 94 95 93 97 100 99 101 100 99 99 96
14 14 15 14 10 7 7 10 12 12 12 12 15 23 29 32 32 30 29 26 23 24 25 30 34 35 33 25 18 12 16 29 29 26 26 23 22 19 22 23 21 21 19 21 20 17 19 22 23 22 20 17 17 16 13 12 11 11 12 13 14 12 13 12 12 12 10 10 8 10 9 21 48 33 25 72 101 98 96 97 100 100 100 101 99 101 100 100
14 14 14 15 14 11 8 10 12 13 13 13 12 16 21 26 30 30 29 27 24 23 22 27 33 34 36 32 22 13 15 26 29 27 26 25 22 15 17 22 22 21 18 16 15 16 19 22 24 22 19 18 19 16 14 14 13 13 13 12 13 12 11 11 11 10 9 9 8 10 8 18 36 33 51 88 99 98 95 95 100 100 100 100 100 100 99 100
13 13 13 14 14 14 11 9 12 14 14 14 13 12 15 19 24 27 27 27 24 22 22 25 32 35 37 32 21 14 14 23 29 28 27 27 22 14 15 21 23 23 20 16 14 16 22 26 27 24 22 21 20 17 14 15 14 14 14 13 12 11 11 10 12 10 9 9 8 10 8 12 16 28 74 102 97 100 95 96 101 99 100 100 100 99 100 100
12 12 13 13 13 14 14 11 11 14 15 14 13 12 12 14 17 20 22 24 23 22 22 26 32 37 40 30 17 14 13 17 25 26 26 27 24 14 12 19 24 24 21 18 15 14 20 25 25 23 22 22 21 18 15 16 16 14 12 13 14 13 10 10 13 10 9 9 8 10 8 12 7 13 68 103 98 96 92 96 100 99 101 100 100 100 99 100
11 11 11 12 12 13 14 14 12 13 15 15 14 14 13 12 13 14 16 19 20 20 22 30 37 41 45 33 16 16 15 15 20 22 24 28 22 12 11 16 19 19 17 16 15 13 16 20 20 22 21 19 19 18 16 15 17 16 14 17 17 14 11 12 16 12 9 9 9 10 7 12 7 10 65 102 97 92 86 89 96 99 101 99 101 101 100 101
11 11 11 11 11 12 13 14 14 13 15 17 16 16 16 16 16 15 16 18 20 25 32 42 47 49 48 34 23 24 23 22 23 22 25 25 19 12 11 14 14 14 13 13 16 16 17 20 21 23 19 15 17 16 15 16 18 18 16 19 19 16 14 14 16 14 11 10 9 9 8 12 8 19 71 100 95 91 82 83 93 98 101 99 100 100 99 101
11 10 11 11 10 12 11 12 14 15 15 16 18 20 22 24 25 27 29 30 34 43 52 55 57 55 43 28 25 27 26 27 26 27 28 22 19 16 13 15 14 13 15 16 18 19 21 22 21 20 18 21 21 15 16 19 18 19 19 21 22 20 18 16 15 15 13 10 10 9 9 11 10 32 76 95 94 91 81 82 92 98 101 98 99 101 99 101
12 11 11 11 10 10 11 11 13 15 15 15 20 23 25 30 36 40 43 48 55 62 64 61 55 46 30 21 23 24 25 27 26 29 29 22 20 20 18 19 18 19 20 20 21 23 23 21 19 18 20 24 21 16 18 20 18 19 21 21 23 23 22 20 17 16 13 11 11 11 11 9 16 50 80 87 92 90 83 84 89 97 101 98 100 100 99 101
12 12 11 10 11 10 10 11 11 14 15 14 18 22 29 39 45 48 52 58 63 58 53 52 45 34 25 22 22 21 24 26 26 28 29 23 20 20 21 20 21 21 19 19 20 21 20 20 20 19 20 20 20 17 14 17 18 17 20 20 20 20 20 20 18 17 15 14 14 12 13 7 21 63 82 81 89 87 83 85 86 93 99 99 101 100 100 101
14 13 12 11 11 10 10 10 10 12 14 14 16 21 31 40 44 49 53 53 49 40 37 40 39 36 32 28 25 25 27 27 27 27 27 24 19 20 21 20 20 18 18 23 22 21 20 20 22 20 21 25 30 32 27 27 26 20 19 20 20 21 20 19 18 19 19 19 17 15 16 8 21 64 80 78 87 85 81 85 85 88 92 97 100 100 100 100
14 13 13 12 11 10 10 10 10 10 12 14 15 21 33 37 38 43 45 42 37 34 36 35 36 38 35 32 31 31 31 31 28 26 27 24 19 19 20 20 20 17 23 28 25 23 21 21 25 26 31 39 46 49 43 36 33 26 21 20 22 23 21 18 17 23 25 20 20 20 16 13 30 66 80 78 83 83 79 80 83 84 87 93 99 100 100 100
13 13 14 12 12 12 10 9 10 10 10 13 15 23 37 39 36 40 44 44 40 37 37 36 38 40 35 33 34 35 37 37 30 26 26 24 20 19 20 20 19 21 29 30 24 24 24 23 26 32 44 52 53 53 43 37 37 31 24 24 25 22 19 20 20 27 28 19 20 20 16 25 46 68 77 75 80 85 82 80 82 84 85 88 95 100 99 99
11 12 12 13 13 12 11 10 9 9 12 17 18 25 38 37 36 45 49 48 44 39 36 37 41 39 35 33 32 35 40 37 31 27 25 23 21 19 18 18 20 23 26 24 21 24 24 22 27 37 46 45 47 52 44 36 37 32 27 23 23 22 17 18 22 29 33 29 26 21 21 39 56 73 80 71 75 90 92 90 89 88 88 88 92 98 97 96
10 11 11 12 12 12 13 10 8 11 16 20 18 24 36 35 40 49 48 47 48 43 38 39 42 40 36 34 31 34 37 34 31 28 23 22 21 19 17 18 20 20 19 20 21 20 17 21 34 43 41 36 41 50 42 29 28 34 36 26 21 24 18 16 25 32 35 35 34 25 22 35 49 72 87 70 67 85 93 96 96 93 90 89 93 97 97 98
9 10 10 10 11 13 12 9 13 16 16 16 17 28 36 32 39 46 47 53 53 46 42 41 43 40 35 34 32 31 32 31 28 26 23 21 19 19 17 17 17 18 20 22 21 17 16 23 33 36 36 34 35 41 40 29 24 30 37 30 23 24 21 23 30 31 26 25 33 30 19 25 33 53 77 73 68 77 85 90 92 93 93 91 95 97 98 101
9 9 10 10 10 11 10 11 16 16 12 12 19 32 35 33 40 43 49 63 57 44 42 40 39 37 33 35 34 30 30 28 24 23 23 20 18 17 17 17 17 18 22 23 21 20 19 24 30 33 36 34 28 31 37 35 24 22 32 34 27 24 25 31 30 25 21 22 37 38 21 22 26 34 54 63 63 71 77 81 82 87 93 93 97 100 100 101
10 9 9 9 9 10 10 10 13 11 9 13 23 34 35 35 39 39 47 58 50 39 38 37 34 30 30 34 32 28 29 27 24 24 23 20 18 16 16 18 17 17 24 26 23 24 26 29 33 36 38 34 27 27 35 33 20 21 37 35 25 22 26 33 30 23 25 28 36 39 26 22 25 28 39 46 53 62 67 73 76 80 86 90 95 99 99 99
10 9 9 10 9 10 10 10 11 10 10 15 24 35 41 38 37 43 51 46 34 31 31 30 28 25 28 32 30 26 25 25 25 26 23 20 18 16 16 18 16 18 25 24 21 28 34 33 32 35 34 28 24 26 34 31 18 25 40 34 26 27 30 34 28 25 36 32 23 31 32 24 23 29 35 40 46 52 56 60 66 73 80 85 90 93 95 95
10 10 9 10 9 10 10 11 10 10 17 27 31 39 44 38 35 44 50 40 29 27 25 24 25 24 28 34 33 28 23 21 22 23 23 19 18 17 16 17 17 17 22 21 21 28 30 25 25 27 23 21 25 30 34 27 21 29 36 30 28 32 35 35 26 24 34 30 20 31 39 27 22 27 29 32 36 40 44 46 50 62 72 79 84 87 92 92
10 10 9 9 9 10 10 11 10 9 18 32 40 44 41 38 44 46 43 40 34 27 22 22 25 24 30 35 33 30 25 21 19 20 21 19 17 17 16 17 18 18 26 29 24 24 24 22 25 24 18 20 27 32 30 25 28 31 27 21 22 27 33 35 32 28 28 26 25 38 47 34 23 25 26 29 32 35 40 39 39 46 57 70 78 81 86 88
10 9 9 10 9 11 11 10 12 12 14 24 39 43 35 40 52 50 44 38 30 27 25 24 26 24 28 33 31 28 26 22 20 20 20 19 17 18 17 18 19 22 30 30 24 25 25 21 22 23 21 21 21 24 24 23 27 26 21 19 20 24 29 29 31 30 26 27 30 41 50 38 24 24 27 31 37 44 49 47 42 39 42 54 69 77 81 83
9 9 9 11 10 10 10 8 11 15 19 27 37 39 37 46 52 51 51 41 27 30 30 26 28 26 24 27 26 25 26 24 21 19 21 20 20 21 19 21 24 26 29 29 27 29 27 21 21 20 21 19 16 20 21 20 22 21 20 23 22 24 29 28 28 29 28 30 35 42 44 33 24 27 33 39 46 56 65 63 58 51 43 43 55 70 77 80
9 8 9 13 15 11 10 10 9 13 23 29 32 35 43 53 55 52 50 38 29 34 34 30 30 27 26 26 24 23 24 25 23 20 21 21 22 23 20 23 27 26 31 35 32 28 24 24 22 17 18 19 15 17 21 22 21 19 20 24 23 25 31 33 34 35 32 33 38 41 38 30 26 30 39 47 53 64 75 78 77 71 63 58 61 69 76 80
7 9 14 21 23 17 12 11 9 12 19 23 30 41 47 49 53 56 50 40 36 37 33 29 26 24 28 30 27 24 22 24 23 20 22 22 26 29 25 23 25 27 35 37 32 29 27 25 22 18 18 18 16 15 18 20 20 20 20 21 21 25 28 29 30 31 30 34 39 37 33 31 30 34 42 49 59 71 79 84 87 83 79 79 78 79 82 84
7 14 24 30 34 31 22 11 9 13 12 19 38 50 49 44 45 51 51 45 41 36 28 26 25 26 30 33 31 25 22 25 24 22 23 24 28 34 29 23 24 28 33 33 33 32 28 24 21 22 21 17 16 16 16 15 18 22 21 19 21 24 28 32 37 39 36 35 37 35 33 35 35 39 44 51 64 74 78 82 84 83 82 82 82 84 86 88
10 22 33 37 42 47 40 22 12 10 11 27 50 55 49 46 40 39 42 37 33 30 24 21 26 29 32 37 38 29 23 26 26 24 25 25 27 30 29 24 23 24 24 31 39 34 26 27 25 22 20 17 16 16 16 15 18 21 19 19 23 24 31 39 42 47 43 35 35 38 38 40 38 38 45 57 68 71 74 78 79 80 80 78 79 79 78 81
14 29 37 39 44 46 46 37 18 6 14 37 58 62 55 43 33 35 40 34 28 29 26 23 27 32 36 44 46 36 28 27 27 27 28 28 27 27 27 25 21 20 18 24 36 35 27 28 28 21 16 18 19 16 15 16 18 19 17 20 24 24 30 35 34 39 39 33 34 39 42 43 37 34 42 57 70 73 74 74 75 79 77 74 78 78 75 76
21 35 37 41 48 42 41 45 24 7 22 45 61 70 62 40 30 35 40 34 29 29 30 30 31 34 38 43 45 38 30 30 32 32 29 28 29 29 28 25 21 21 19 18 26 34 31 26 27 25 19 19 19 16 15 17 17 17 17 18 22 24 27 31 34 36 35 35 37 39 43 43 34 32 36 46 65 76 75 72 72 72 70 71 79 80 74 70
33 40 41 48 52 40 38 43 25 14 34 51 55 62 59 45 39 41 41 37 33 31 34 34 30 33 37 37 37 35 32 36 38 34 31 30 31 30 28 24 21 22 24 19 21 33 38 32 27 25 21 19 18 18 18 18 18 19 19 19 24 29 30 30 33 33 31 35 38 37 40 37 32 38 39 38 56 72 73 73 71 70 74 76 80 80 69 58
41 41 49 59 56 42 41 41 27 27 46 55 55 58 56 50 47 43 40 38 33 31 37 38 31 36 41 35 32 33 35 41 41 38 39 35 29 30 28 23 22 24 26 22 25 37 41 34 30 27 21 18 18 20 21 20 20 21 22 24 28 31 29 29 32 32 29 31 35 37 37 32 37 52 52 45 52 61 66 72 73 76 84 82 80 80 66 51
46 50 61 65 56 45 43 42 42 53 63 61 60 61 57 51 48 44 40 38 33 30 35 37 33 37 42 35 30 32 37 41 41 41 43 39 35 36 31 26 25 26 26 23 28 41 40 33 36 35 24 19 20 21 23 22 21 22 23 25 29 32 28 26 30 35 33 31 34 35 32 33 47 64 67 63 60 54 56 67 74 80 87 87 87 90 78 63
51 60 67 65 57 53 50 55 69 80 74 62 55 55 54 50 45 42 39 37 38 36 35 36 36 38 41 36 31 31 35 39 38 38 38 41 47 42 29 28 31 28 28 29 33 46 51 45 40 33 23 21 22 24 25 25 23 23 26 29 31 33 31 26 28 36 38 37 37 33 28 36 56 66 69 75 73 63 61 70 78 85 91 94 96 96 88 79
57 61 63 62 63 62 57 65 81 85 75 65 57 52 51 51 48 45 41 38 38 37 36 35 35 35 36 35 30 28 32 36 36 37 39 41 42 37 29 31 34 33 32 32 38 50 57 51 37 26 25 22 19 22 25 26 25 24 29 37 35 33 36 38 40 41 39 37 37 31 27 39 56 60 63 73 79 76 75 78 81 87 93 97 98 93 85 81
60 61 59 61 63 63 67 78 88 88 82 75 65 53 47 48 49 46 42 40 38 39 42 41 37 35 36 38 36 34 36 36 35 38 42 41 35 34 36 34 36 44 44 41 47 49 48 51 43 29 28 27 23 24 22 21 25 28 34 42 41 40 44 47 46 41 35 39 39 28 27 43 56 57 58 66 73 77 81 84 84 88 92 95 96 92 85 81
58 60 58 59 56 59 75 88 90 91 91 83 69 57 51 47 44 40 40 41 40 40 44 44 40 40 42 44 44 43 40 40 42 42 41 41 34 29 35 38 41 52 52 40 41 44 48 60 56 36 30 33 31 31 29 27 30 33 35 39 42 43 44 40 36 30 28 40 41 26 30 50 57 55 58 62 68 72 76 80 83 87 92 96 97 95 90 87
61 67 67 64 57 62 80 86 82 84 86 79 66 58 57 55 45 37 39 42 41 40 40 39 40 44 46 49 52 50 45 41 43 45 42 41 38 30 31 38 42 50 51 34 28 48 65 64 57 45 36 34 34 36 38 37 36 34 33 37 43 49 51 42 31 26 31 39 38 34 47 62 61 59 62 64 66 69 71 73 76 83 89 93 96 95 92 91
61 74 82 77 67 71 83 86 87 86 79 72 65 60 60 58 49 42 40 41 40 41 42 38 38 43 48 55 59 56 51 47 43 47 48 42 40 37 28 27 30 38 49 39 33 62 80 63 53 55 45 38 40 41 40 40 43 47 49 51 53 57 58 46 34 39 42 32 32 49 66 69 65 65 66 66 68 70 71 74 78 82 85 87 89 90 89 89
58 67 77 77 76 81 86 90 93 89 79 70 65 65 63 55 50 48 44 42 40 40 45 44 38 39 44 53 59 57 56 55 49 51 53 44 42 42 30 25 27 27 37 41 40 65 84 70 59 58 49 47 50 46 44 44 46 54 59 62 62 62 62 57 54 62 55 36 40 62 73 71 68 67 64 66 71 74 77 83 84 83 81 79 79 79 77 77
60 62 65 65 70 79 85 90 92 89 87 81 70 69 68 60 53 46 41 49 50 42 46 51 43 37 40 46 55 58 56 55 50 49 53 51 49 48 40 37 35 26 31 44 46 56 71 71 67 63 58 59 59 56 54 52 49 52 55 58 62 63 63 64 67 71 65 59 64 71 74 74 68 62 62 65 72 77 81 85 85 83 78 73 71 72 71 70
66 68 67 59 59 68 75 85 94 93 92 91 83 75 68 63 60 48 38 49 60 51 47 52 47 38 38 41 48 51 50 51 50 47 51 55 53 47 44 42 38 31 35 46 49 48 54 63 69 71 70 68 66 65 66 61 58 59 58 60 62 62 61 63 69 70 66 69 73 70 73 74 63 57 61 65 69 74 76 79 83 84 82 76 74 76 75 71
61 67 68 61 61 66 68 78 93 96 92 93 93 85 75 68 64 55 44 42 51 53 50 53 52 42 37 41 45 46 45 47 48 43 42 48 46 40 40 40 40 40 39 43 50 51 54 61 64 63 67 67 62 65 70 67 62 60 63 70 74 70 66 65 68 71 70 69 68 65 68 69 60 56 58 59 62 64 67 71 75 76 76 73 71 72 72 71
53 56 58 59 61 63 63 67 78 87 91 96 99 96 91 80 64 57 54 44 40 46 48 51 55 47 39 43 47 45 42 42 41 38 37 40 39 37 39 40 41 42 39 40 51 57 55 56 57 55 60 62 60 64 69 67 62 59 64 74 78 75 72 70 69 71 74 71 63 60 63 64 59 55 54 54 55 58 61 64 63 62 61 59 57 57 60 64
Wind_Speed
13 12 11 10 11 11 10 9 8 8 9 10 12 13 14 14 13 11 10 8 8 8 8 9 9 8 8 8 8 8 9 9 9 10 11 6 3 7 8 8 10 13 14 14 15 15 15 15 14 13 14 14 11 11 10 7 7 5 2 3 2 3 3 4 5 4 1 2 3 7 8 5 4 5 8 8 11 10 7 5 4 2 3 13 8 15 27 23
12 11 11 11 11 11 10 10 8 7 8 10 11 12 13 14 13 12 11 10 9 9 9 9 9 8 8 8 8 8 9 9 8 7 4 2 2 3 5 9 11 14 14 13 13 13 14 15 14 13 15 13 8 9 9 6 7 3 1 2 3 3 3 4 4 2 2 3 5 6 5 4 2 6 8 5 5 6 5 4 3 4 7 12 10 19 26 23
11 10 11 11 11 11 11 10 9 7 8 10 11 12 12 13 14 13 12 11 10 10 10 10 9 8 8 7 7 8 9 9 7 2 2 3 3 3 3 8 11 15 14 12 12 11 11 13 14 15 16 11 7 9 7 6 6 2 1 3 3 4 3 4 6 6 5 5 6 5 6 5 2 6 6 4 6 5 4 5 5 5 10 12 16 24 24 25
11 10 10 11 11 12 11 10 9 9 8 9 10 11 12 13 13 13 13 13 11 11 11 10 9 8 8 7 6 7 8 7 2 5 3 2 4 4 1 7 11 15 15 13 11 10 10 12 13 16 14 7 5 8 6 6 6 3 3 2 2 3 3 5 8 8 7 6 4 4 5 5 4 4 7 6 7 3 5 10 8 10 16 17 23 28 25 26
13 11 11 11 11 12 12 11 10 10 9 9 10 11 11 12 12 13 13 13 13 13 12 11 10 9 8 6 6 5 6 3 5 7 3 0 2 4 1 6 11 15 16 13 11 10 11 13 14 15 10 4 5 6 4 7 6 3 3 2 4 5 3 7 8 6 5 5 3 3 4 3 3 1 9 9 5 2 4 12 11 12 19 21 26 29 27 26
15 13 12 11 11 11 11 10 11 11 10 9 10 10 10 11 12 12 13 13 13 13 13 12 10 9 8 6 5 5 4 0 6 5 1 2 0 2 1 5 10 13 15 13 12 11 12 14 14 12 7 3 5 5 5 8 7 3 2 3 6 7 5 8 7 6 6 5 3 2 3 2 1 1 9 10 6 4 3 10 12 11 17 21 27 30 29 27
17 15 13 12 11 11 10 10 11 11 10 10 10 10 10 10 11 12 13 13 13 13 14 13 11 9 8 7 6 5 6 3 5 3 2 3 3 1 1 4 9 11 13 13 12 12 13 15 12 10 7 3 4 5 5 8 6 4 2 2 6 9 9 9 9 9 10 9 7 5 5 5 2 1 7 8 8 9 5 6 11 12 16 21 26 29 28 26
19 17 15 13 12 11 10 10 10 11 11 11 10 10 10 10 10 11 12 13 13 13 13 13 12 11 9 7 6 6 8 4 4 4 3 5 4 3 3 5 8 10 12 12 11 12 13 14 12 11 5 2 5 6 6 6 4 4 4 3 3 7 9 10 11 13 14 13 11 7 6 5 4 4 5 5 7 7 3 5 11 14 18 22 26 27 26 25
19 19 17 15 13 12 11 10 10 10 11 10 10 10 11 11 10 11 11 12 13 13 13 13 13 12 10 8 7 6 5 3 3 4 4 3 3 4 5 6 8 11 12 11 10 11 12 13 13 10 4 3 6 6 6 6 4 5 6 4 3 5 8 10 11 12 11 10 6 4 4 3 3 5 4 4 4 3 4 8 12 15 19 24 27 26 25 24
18 19 19 17 15 13 11 10 10 10 10 10 10 10 11 11 11 11 11 12 12 13 14 13 13 12 11 9 5 2 2 4 3 4 4 2 2 4 6 7 7 9 12 12 10 12 12 12 11 8 5 5 5 4 5 5 2 4 6 5 6 7 9 9 8 9 8 7 7 6 2 2 5 5 2 3 4 6 9 10 12 15 19 23 25 23 21 21
18 18 19 18 17 14 12 11 11 10 9 9 10 10 11 12 12 12 12 12 13 14 14 13 13 12 12 10 5 3 3 4 4 5 4 2 1 3 5 6 7 8 11 11 11 13 13 11 8 5 4 4 4 3 4 4 1 1 4 3 5 6 9 9 9 10 6 6 8 7 1 4 5 4 2 5 8 9 11 11 13 16 18 20 22 20 17 18
17 18 18 18 18 16 13 12 11 10 10 9 9 10 11 12 12 13 13 13 13 14 14 14 13 13 14 14 10 5 5 6 6 5 4 2 2 2 4 5 5 5 8 10 12 14 12 10 7 4 3 3 3 2 2 2 2 1 2 2 3 3 5 7 5 5 4 3 5 8 3 2 4 3 2 7 11 11 11 12 13 16 18 19 21 20 18 22
17 17 17 17 17 17 15 13 12 11 10 9 9 10 11 12 12 13 14 14 14 15 16 14 14 15 14 12 8 5 8 9 8 6 4 2 3 3 6 7 6 4 5 7 12 14 12 11 8 2 2 2 1 1 1 1 1 2 2 1 2 1 2 4 1 2 4 3 7 10 4 4 6 4 6 10 14 14 12 13 14 17 18 20 23 21 21 27
17 17 17 17 16 17 16 15 13 12 11 10 10 9 10 12 12 13 14 15 15 16 16 14 15 14 12 11 8 5 10 11 10 8 4 3 3 4 8 10 9 7 6 7 9 11 11 10 6 2 2 2 1 1 0 2 1 1 2 1 1 2 3 2 1 4 4 2 9 11 5 4 5 4 10 13 15 15 14 15 16 18 19 21 23 24 25 27
17 17 17 16 16 16 16 16 14 12 11 11 10 9 10 11 11 12 13 15 15 16 16 15 14 11 12 14 7 4 7 9 10 7 5 5 4 4 8 12 11 9 9 10 8 8 9 6 4 2 2 2 3 1 0 1 2 1 2 2 0 2 2 2 2 6 5 1 8 9 4 4 3 3 13 15 15 15 14 15 16 18 20 20 21 23 25 26
18 17 16 16 16 15 15 15 15 13 11 10 10 9 9 10 10 11 13 14 15 15 14 12 11 9 9 7 2 3 1 1 6 6 6 6 3 4 10 12 11 11 11 10 9 7 7 5 2 1 1 1 2 2 2 1 1 1 1 2 2 3 2 1 2 4 4 1 5 6 3 2 2 2 13 16 17 16 13 14 15 16 17 18 19 20 23 25
18 17 17 16 16 15 15 14 14 14 12 10 9 9 9 10 10 11 12 13 13 12 11 9 8 8 7 4 1 3 4 5 1 5 6 8 6 5 11 13 12 12 11 9 8 6 6 4 2 1 1 1 1 1 3 2 3 1 1 1 1 2 2 2 1 1 1 2 4 5 4 4 1 1 12 16 17 16 13 13 13 14 15 16 17 17 19 22
18 18 17 16 16 15 15 14 13 13 12 11 9 9 11 10 10 11 11 10 8 5 6 6 4 4 5 5 3 2 3 6 2 2 7 11 9 8 9 9 11 12 10 7 6 6 5 3 1 2 1 1 1 2 4 3 3 4 2 2 1 2 2 3 2 1 2 2 4 4 7 8 1 2 12 15 15 15 12 12 12 12 13 15 16 17 17 19
19 18 18 17 16 15 15 14 13 12 12 11 9 10 10 9 9 9 7 5 5 3 5 4 5 4 6 8 8 7 8 7 3 2 9 12 12 11 7 7 10 11 8 5 4 5 4 2 1 2 2 2 3 4 4 2 3 4 2 1 2 2 3 4 3 1 1 3 6 7 9 9 5 5 11 15 15 14 11 11 12 12 12 14 15 17 17 18
19 19 18 17 16 16 15 14 13 12 12 11 10 9 7 6 6 4 6 11 12 11 12 13 14 16 15 13 12 10 9 6 3 3 10 14 13 12 7 7 8 7 4 3 3 3 3 2 2 3 4 4 4 3 2 3 3 3 2 2 2 2 4 3 2 1 1 4 5 6 8 7 5 6 10 14 15 14 13 13 13 12 13 14 16 17 17 16
20 19 18 18 16 16 15 14 13 12 12 11 9 7 4 3 3 4 9 15 17 16 17 19 19 21 19 14 12 10 7 5 2 6 11 14 14 11 7 5 4 3 1 0 3 3 2 3 3 5 4 3 3 4 4 3 3 2 2 2 2 3 4 2 1 2 1 4 2 2 7 4 1 4 9 12 13 12 13 14 13 13 13 14 15 17 16 14
20 20 19 18 17 16 16 15 13 12 13 11 8 5 2 2 4 7 9 12 19 20 17 18 20 23 21 18 18 16 9 5 3 7 12 15 15 11 7 4 3 3 0 0 3 2 2 4 5 5 3 5 4 3 4 3 2 2 1 1 2 2 3 2 0 3 1 3 2 2 6 1 3 2 7 9 9 9 12 13 11 12 14 14 14 15 15 14
21 20 19 18 17 16 16 15 12 12 12 8 5 3 2 4 6 9 9 8 16 19 14 14 18 21 21 17 17 15 10 6 6 8 14 18 14 11 8 5 2 3 2 3 4 3 3 4 4 4 7 6 4 3 4 3 2 2 2 2 2 1 1 1 1 2 2 1 1 4 4 2 4 2 3 2 2 4 8 10 11 12 14 14 13 14 14 15
21 20 20 19 17 16 15 15 12 10 8 6 5 3 2 6 7 9 8 6 9 11 9 9 10 15 16 13 11 13 14 9 7 9 15 19 15 10 7 5 3 3 3 4 4 5 4 1 3 6 6 5 4 3 5 4 2 2 3 5 3 1 3 2 1 1 1 1 2 5 4 2 2 4 4 1 2 4 5 7 11 13 15 14 13 14 15 15
21 20 20 19 18 15 15 15 10 6 6 6 4 3 3 6 8 8 5 3 5 5 5 5 5 7 8 9 8 12 13 10 10 11 16 20 18 10 5 5 5 3 3 4 4 4 4 2 6 6 3 4 4 3 5 5 3 2 5 9 7 4 3 3 2 1 3 2 2 1 3 3 2 3 6 4 3 4 4 6 11 13 16 16 15 17 16 14
20 20 20 20 19 16 14 11 7 6 7 5 3 4 5 7 7 7 3 1 3 3 2 1 2 2 6 9 12 12 7 6 11 14 16 19 19 11 5 4 2 2 4 4 2 2 2 3 4 3 3 5 4 3 5 6 4 2 4 8 8 5 2 2 2 2 2 2 1 1 1 3 3 2 5 5 7 7 5 7 12 15 17 18 18 18 17 15
20 20 20 20 19 17 14 10 8 10 8 4 4 5 6 7 6 5 2 2 2 2 1 1 1 3 4 7 16 12 2 5 10 14 19 19 18 13 6 3 1 2 4 3 2 2 3 4 2 2 3 3 4 3 5 8 6 2 1 5 8 6 5 4 2 1 0 0 1 1 1 2 3 2 2 3 6 8 7 8 10 14 17 18 19 19 17 17
20 20 20 19 19 17 16 13 11 10 6 6 6 6 6 6 4 1 1 2 1 0 1 2 0 3 2 8 18 10 1 7 8 11 20 20 17 11 5 5 5 3 3 4 4 1 3 4 4 4 3 2 4 3 7 11 5 1 2 4 6 4 3 3 2 1 1 1 3 1 3 1 3 2 2 3 6 8 9 9 10 12 15 16 18 19 18 17
20 20 20 19 19 17 16 15 12 8 4 6 6 5 5 4 2 1 2 1 1 1 1 2 3 3 4 8 14 8 0 3 2 8 17 18 15 8 3 7 5 4 2 2 4 1 1 4 5 5 3 3 3 1 7 10 3 1 5 6 5 4 3 2 1 2 1 2 3 2 4 2 3 1 2 3 4 5 6 6 7 9 13 16 18 20 20 19
21 21 21 20 19 17 16 14 10 6 6 8 7 5 3 2 1 1 1 2 2 1 1 3 2 3 6 6 6 7 2 1 3 10 12 11 12 6 3 6 4 3 1 2 2 1 1 1 2 3 3 2 3 3 2 2 3 5 5 5 5 3 2 1 2 2 1 2 1 2 5 2 3 1 1 2 2 0 3 3 3 5 10 14 18 20 20 21
21 22 21 20 19 17 16 12 6 4 7 10 8 6 3 2 1 1 2 2 1 1 2 1 0 2 6 4 2 3 2 1 4 9 7 5 7 4 4 5 3 2 1 1 2 2 2 1 1 2 3 4 5 5 3 2 3 4 2 3 3 1 1 1 1 0 3 3 1 2 3 2 3 2 1 2 1 2 4 5 4 5 7 10 14 18 19 19
22 22 20 19 18 17 15 12 7 5 8 10 8 8 5 2 1 2 2 2 1 0 1 0 1 1 2 1 2 3 2 2 3 5 4 3 5 4 3 4 3 2 1 2 2 1 2 4 2 2 3 5 4 4 3 1 1 2 2 3 3 1 1 2 1 2 3 1 1 2 1 1 2 1 2 4 5 5 5 6 8 9 8 7 9 13 16 17
23 22 19 16 16 16 13 10 9 9 10 9 8 6 4 1 3 4 3 2 1 1 1 1 2 1 2 1 2 3 2 3 4 3 3 2 4 5 1 1 3 2 1 2 2 0 2 2 1 1 2 5 6 4 4 3 3 4 4 4 4 3 2 2 1 1 2 1 1 1 1 1 1 1 2 5 6 7 7 6 8 9 8 4 4 10 13 14
23 20 17 13 11 12 12 11 11 11 12 10 7 5 3 3 3 2 2 3 1 2 1 0 2 2 2 1 2 2 2 3 3 4 3 3 3 4 2 1 2 1 1 2 1 2 3 2 2 3 1 4 7 5 3 4 4 3 1 2 4 4 3 3 3 2 3 1 2 1 1 2 2 1 3 5 6 6 6 5 2 1 1 5 9 10 12 14
21 18 14 9 6 7 9 11 12 13 14 11 5 2 4 5 2 1 2 2 1 2 2 1 1 1 1 1 2 1 2 2 2 4 4 3 4 3 3 5 5 2 2 3 2 1 1 3 2 2 1 2 4 3 3 4 4 1 1 1 2 3 3 1 0 0 1 1 1 2 1 1 0 1 4 4 4 5 5 3 4 7 10 12 14 14 14 15
19 15 9 5 4 4 6 10 14 17 17 11 4 2 4 2 2 2 2 1 2 0 2 2 1 1 1 1 1 0 1 0 2 2 2 2 3 3 2 3 5 6 4 3 2 1 1 2 1 1 0 1 2 2 3 1 2 3 2 3 1 0 3 3 2 2 1 2 2 1 1 1 1 2 2 1 2 4 4 3 5 8 12 15 16 17 16 15
16 12 6 3 5 7 7 8 14 19 18 10 3 4 3 1 3 3 1 1 2 1 1 1 0 0 1 1 0 1 1 2 2 1 2 2 2 3 2 2 5 8 7 3 1 2 2 1 1 0 2 2 2 4 5 4 1 3 3 5 3 2 3 2 2 2 0 3 2 1 0 2 3 2 3 4 5 5 4 3 5 6 10 13 14 16 18 18
14 9 4 5 11 10 9 9 15 20 16 7 3 3 2 2 3 3 0 1 1 1 2 1 1 1 0 1 1 2 2 2 2 0 2 1 1 2 1 2 5 6 6 4 2 1 2 2 1 1 1 2 2 3 5 4 4 1 2 5 3 2 2 2 2 3 4 3 1 2 0 2 4 1 2 5 6 7 6 5 5 5 6 7 8 13 17 19
11 6 4 12 17 13 8 9 18 20 11 4 4 3 2 2 3 3 1 1 1 1 1 1 1 1 0 1 1 1 2 2 3 1 1 1 1 1 0 1 3 2 3 5 4 1 1 2 1 0 1 1 1 1 3 3 4 3 3 4 1 1 2 2 1 1 4 4 1 2 2 3 3 1 2 1 3 6 7 5 4 4 4 5 6 11 16 19
10 2 6 19 21 11 2 13 19 15 6 2 3 2 1 2 3 4 4 2 2 2 1 1 1 1 1 1 1 1 1 1 3 2 1 1 1 1 1 2 0 0 0 3 3 1 2 1 2 0 1 2 1 0 2 3 3 2 4 3 1 1 0 1 1 1 1 3 2 3 3 2 1 2 4 4 3 2 5 5 3 3 3 4 6 9 15 19
9 1 7 19 13 7 10 14 10 4 2 0 1 0 1 1 1 2 3 3 3 2 1 2 2 1 1 1 2 1 0 1 2 2 2 2 1 0 1 3 1 1 1 3 2 1 1 2 2 1 0 2 1 2 2 2 2 2 3 3 3 3 3 3 3 1 0 1 2 3 3 2 2 2 5 5 3 2 2 5 5 4 5 6 4 5 12 17
9 3 9 12 5 8 7 6 1 1 2 0 1 2 2 1 1 1 1 2 3 2 0 2 2 2 2 2 2 1 1 1 2 2 1 2 3 3 1 4 4 1 1 1 1 1 1 2 2 1 0 0 1 1 1 1 1 1 1 1 2 2 3 3 4 3 2 1 1 1 2 2 3 5 5 5 4 3 3 6 8 7 8 8 6 7 12 16
9 7 10 6 2 7 6 2 1 2 1 2 1 2 2 1 1 1 0 0 1 0 0 1 1 2 2 1 2 2 2 2 1 1 1 2 3 3 1 5 4 2 1 1 1 0 1 1 2 2 1 1 0 1 1 1 2 2 3 2 1 1 1 1 1 2 3 3 2 2 3 3 3 5 6 6 4 2 3 8 11 10 11 11 10 13 16 17
6 9 14 11 3 5 3 1 2 2 2 4 2 1 2 0 0 1 1 1 1 1 0 1 1 0 1 0 1 1 1 1 0 1 0 2 1 2 4 4 3 2 3 1 1 0 1 1 1 3 3 1 1 2 2 1 1 1 2 2 1 2 4 3 2 2 3 2 2 3 3 3 3 4 7 8 7 7 7 7 10 11 11 11 13 16 18 18
4 4 12 16 12 9 6 2 1 1 2 3 2 4 4 1 3 3 2 2 3 2 1 1 1 1 1 2 2 2 2 0 0 2 1 1 2 3 7 6 6 4 5 6 6 3 2 0 1 2 5 4 4 2 1 1 1 1 2 2 2 1 2 3 3 2 4 3 2 2 2 4 3 6 9 9 7 8 8 8 10 10 10 10 12 15 17 17
4 2 5 11 16 18 13 7 4 1 1 2 1 4 5 2 3 6 5 4 4 3 2 2 3 1 1 2 2 2 3 2 1 2 2 3 1 2 7 8 9 8 10 16 15 7 2 2 3 3 2 1 1 1 3 1 1 1 2 4 5 4 3 1 3 3 3 4 3 1 1 6 3 6 8 8 8 6 7 8 10 11 12 12 13 15 15 15
4 2 3 4 7 11 10 11 11 5 2 2 1 4 6 4 3 4 5 4 4 5 3 3 5 3 0 0 2 2 3 3 4 3 2 2 1 2 5 8 10 8 6 12 14 9 3 2 3 6 7 5 3 3 4 4 5 5 4 4 5 5 4 1 3 2 2 4 4 1 2 5 3 6 7 6 7 5 6 8 9 11 14 15 15 15 16 14
5 2 2 2 2 3 4 8 10 8 7 5 2 4 8 8 5 5 5 3 5 7 3 2 8 8 2 2 2 2 3 3 4 4 2 3 2 2 4 5 7 10 5 3 4 5 4 2 1 3 6 7 7 7 8 8 7 6 7 6 6 7 5 4 4 2 0 1 2 4 5 4 4 4 5 6 6 5 6 7 9 13 17 18 18 18 18 17
6 4 4 5 4 3 4 7 9 8 9 6 4 6 9 10 8 6 5 2 3 8 6 2 7 10 6 2 2 3 3 2 3 3 2 3 3 2 3 2 4 10 6 2 2 2 3 2 2 3 5 6 8 7 7 9 7 6 8 7 6 7 8 8 5 3 5 6 5 8 10 8 4 4 5 5 4 4 7 11 13 16 18 21 23 23 22 21
6 5 5 5 6 6 7 6 7 4 7 6 4 6 8 10 9 6 6 5 3 5 7 4 5 8 7 7 6 5 4 3 3 3 2 1 2 2 2 2 2 7 6 2 1 2 2 3 4 4 4 3 6 6 6 8 8 6 5 5 5 6 6 6 5 4 6 8 6 8 10 8 4 5 5 5 4 8 12 15 16 15 17 23 25 24 24 23
9 8 6 4 4 7 6 4 4 2 4 6 5 5 7 8 9 5 4 7 7 4 5 4 4 3 4 9 9 6 4 4 2 3 4 3 2 1 1 1 0 4 5 3 1 2 2 4 3 3 3 2 2 3 5 7 7 4 2 3 5 4 3 4 4 3 2 4 7 7 6 5 3 5 6 7 10 14 15 16 16 17 20 24 25 25 25 24
11 9 7 4 3 7 6 3 4 3 3 4 4 4 5 6 10 6 3 5 9 9 7 5 3 1 3 8 8 7 9 8 6 7 7 5 4 3 1 2 2 2 3 2 1 1 1 5 5 3 4 3 1 2 3 4 3 3 2 1 2 2 2 3 4 5 5 0 3 3 4 5 4 4 6 10 13 15 15 15 16 18 22 26 27 26 25 23
Wind_Direction
318 316 312 315 317 322 329 328 331 338 342 344 346 350 350 349 348 343 338 331 324 322 322 321 324 322 316 318 319 318 316 308 299 289 290 309 282 242 231 219 201 193 193 188 187 184 181 182 184 183 173 171 179 182 182 178 167 157 165 210 210 191 174 184 194 183 169 350 342 352 8 37 38 109 115 118 114 102 109 78 122 90 99 169 176 171 173 172
321 318 311 310 310 313 318 321 326 329 335 339 341 346 349 349 351 351 347 336 329 324 321 324 328 324 320 322 324 323 317 308 302 289 286 360 336 279 231 217 199 187 187 182 182 182 183 183 182 178 170 169 174 178 184 181 175 165 139 214 214 183 181 201 201 187 202 321 330 331 357 18 356 157 144 133 120 118 107 72 112 81 120 164 165 169 176 172
326 320 312 309 307 307 308 314 321 323 328 332 335 341 346 349 351 354 353 345 337 328 324 325 328 328 325 326 328 327 321 311 302 271 111 60 14 339 235 212 192 180 179 176 172 173 183 185 181 173 166 166 167 173 180 177 181 177 177 219 209 199 239 230 220 232 246 293 314 326 345 359 32 179 181 146 146 164 170 149 155 154 153 160 165 173 178 175
335 325 317 311 307 305 303 306 314 318 319 324 331 336 341 347 350 353 354 352 347 339 332 329 331 334 331 333 332 328 330 324 266 151 129 62 39 11 264 197 187 178 175 175 169 161 171 180 177 171 165 155 154 168 176 181 182 164 192 225 151 176 241 246 241 251 264 275 282 324 334 358 51 181 197 155 152 198 225 192 181 186 175 163 169 177 180 178
346 335 324 316 311 307 302 300 306 311 312 316 322 328 336 342 347 351 352 353 354 351 345 340 340 337 333 333 330 327 336 349 144 145 155 152 42 22 59 176 182 180 178 178 171 160 163 170 169 167 162 143 150 166 182 183 174 163 198 200 143 160 231 270 272 277 280 269 264 317 329 348 35 177 185 172 178 209 222 209 204 197 185 172 173 179 181 182
357 347 336 325 319 313 305 300 301 304 306 309 313 319 327 334 342 348 349 352 354 355 354 352 349 338 335 335 327 317 319 294 151 157 195 204 269 22 85 169 179 184 185 183 175 167 164 166 165 162 152 129 161 173 178 180 185 205 207 186 191 192 224 273 282 292 286 276 269 275 309 298 52 121 183 189 240 263 238 219 210 197 187 175 175 180 182 183
4 357 347 336 326 320 315 307 301 301 303 301 303 310 318 326 334 341 345 348 351 352 355 357 354 342 338 334 324 306 291 258 178 205 216 193 225 273 220 191 187 190 190 189 185 176 169 168 166 157 142 124 177 185 167 172 193 221 213 201 216 210 229 264 274 284 283 274 275 271 283 271 229 228 197 203 254 266 273 229 201 178 173 173 176 182 183 183
8 4 356 346 335 328 323 318 308 299 296 295 297 301 309 316 322 333 339 342 346 349 352 357 356 348 343 333 326 311 285 256 194 207 193 193 224 255 245 215 202 197 194 196 195 185 174 170 165 155 152 148 174 179 162 167 194 217 219 210 208 217 242 270 277 282 284 277 280 272 260 262 239 231 216 221 250 259 267 198 179 166 167 174 180 184 185 185
7 5 2 355 345 336 329 326 317 304 295 292 294 296 301 307 313 324 329 334 339 344 349 349 349 349 346 333 324 314 270 211 185 194 181 194 231 252 246 232 218 207 200 201 199 191 175 168 167 163 172 160 162 167 165 186 204 203 212 209 207 242 268 281 281 280 285 282 275 240 248 271 212 203 216 236 238 210 160 162 163 165 170 176 184 187 188 189
3 4 4 0 353 343 335 330 323 316 304 293 292 293 296 300 305 312 319 328 331 336 342 341 343 345 341 337 333 321 199 173 175 177 171 188 241 257 246 236 230 219 209 204 198 189 173 167 166 156 149 145 159 164 165 188 198 189 203 220 237 263 282 280 275 272 281 281 245 221 276 37 157 182 221 202 179 157 148 154 163 170 175 180 186 188 190 191
358 360 1 1 358 350 340 333 328 323 315 302 292 288 291 294 298 304 310 320 325 329 333 334 334 333 332 325 296 249 203 186 177 170 177 197 251 262 244 234 230 225 217 205 192 183 173 168 162 147 140 138 153 165 179 205 266 209 191 233 255 277 277 260 266 269 266 271 240 210 114 74 147 186 249 176 165 161 156 160 171 176 179 183 188 187 188 190
354 355 357 358 358 354 345 335 331 327 320 311 297 287 286 288 293 299 304 311 318 321 323 328 326 324 325 310 284 253 214 201 191 189 199 211 273 246 203 215 230 229 219 200 183 179 169 161 156 132 125 135 146 157 184 216 253 176 155 263 277 324 274 232 253 263 209 252 212 171 158 138 173 182 164 168 165 161 162 166 174 179 182 186 189 188 190 195
349 350 351 353 355 355 351 340 333 328 321 312 302 291 284 285 289 293 299 304 310 313 315 320 318 318 318 304 296 263 221 212 203 205 221 233 272 240 187 187 212 216 208 198 187 182 164 153 158 122 97 145 151 143 134 101 177 150 120 291 282 316 256 201 230 178 182 250 164 162 222 223 197 181 149 166 169 162 164 170 177 182 186 190 190 191 195 199
346 346 347 348 350 352 352 347 337 330 326 318 310 302 293 288 287 290 295 298 302 306 309 313 312 315 311 297 304 269 230 219 214 215 232 247 260 238 192 178 190 194 181 183 186 187 174 162 181 242 302 247 211 154 30 37 76 120 139 150 308 240 208 176 168 161 180 230 166 177 245 229 215 186 160 171 174 168 169 173 181 186 189 192 192 195 198 201
342 343 343 343 344 346 349 348 343 334 328 323 317 311 304 296 291 290 290 292 296 300 305 306 304 310 306 298 300 249 231 227 226 225 231 245 255 227 189 171 173 172 162 161 164 175 177 176 207 250 299 248 206 187 140 47 62 49 186 178 191 216 226 279 208 194 211 168 169 194 243 231 248 176 164 173 178 177 177 177 184 189 190 192 192 196 200 204
338 340 340 340 340 341 343 345 346 340 329 326 323 317 314 308 300 294 290 291 294 296 300 296 295 310 306 303 7 135 150 236 224 229 227 214 201 190 173 161 159 157 153 153 149 153 162 166 197 234 316 187 174 151 128 138 121 47 238 196 175 194 232 290 177 215 249 100 170 212 244 220 285 166 166 174 181 182 182 182 187 191 191 193 193 197 204 208
335 336 337 338 337 336 337 340 344 342 332 326 326 325 322 315 306 300 295 293 293 296 298 286 287 300 275 260 350 124 74 40 192 218 211 177 151 157 158 152 152 149 144 146 151 156 162 163 182 186 62 92 143 154 161 190 190 172 235 191 189 204 215 239 170 176 244 184 197 214 226 219 354 146 173 176 183 183 184 186 188 193 193 194 196 200 205 210
333 333 333 335 334 334 334 334 337 340 335 325 324 327 321 317 315 304 295 291 291 303 305 278 266 294 262 240 244 169 22 357 360 189 192 172 153 154 152 145 146 143 137 144 162 172 170 161 165 154 99 93 158 179 185 200 189 178 186 178 195 211 218 251 255 136 134 208 209 185 217 229 255 149 176 177 185 187 188 188 187 193 195 197 202 204 205 211
332 331 331 332 331 331 330 330 331 334 333 325 321 324 319 325 322 304 295 283 260 278 298 256 222 267 288 272 260 267 298 308 307 219 188 177 167 161 149 134 143 145 144 153 166 172 170 149 144 168 176 183 183 193 199 183 150 153 153 173 199 220 236 254 264 244 153 220 220 194 213 222 192 172 179 179 186 192 193 190 191 193 193 200 205 205 208 213
331 330 330 329 329 329 326 328 328 326 329 325 320 323 323 335 330 300 294 283 273 278 281 270 259 263 274 279 275 273 281 287 283 209 180 181 179 170 152 138 144 143 144 154 153 163 178 170 178 196 196 195 197 189 152 114 117 126 133 178 224 242 257 254 244 310 189 217 226 205 217 223 189 180 183 181 185 193 196 194 196 196 195 203 205 206 210 212
330 329 328 328 328 327 323 324 326 323 323 321 318 324 321 333 338 308 305 294 288 287 281 277 270 262 264 266 264 264 277 294 262 181 177 182 180 177 171 154 145 140 144 126 124 131 177 189 215 219 202 177 164 145 125 119 112 123 169 230 247 224 254 266 159 2 248 214 237 188 211 221 167 186 184 184 190 198 202 200 200 200 203 209 208 210 211 210
328 328 327 327 327 326 322 320 324 322 319 316 315 316 283 296 312 302 304 296 295 297 286 275 264 257 257 252 250 256 268 278 233 181 176 178 178 180 174 157 158 148 91 360 130 119 196 215 228 212 147 99 104 131 139 133 126 129 168 244 244 212 257 276 125 14 33 211 248 168 193 164 51 178 183 190 204 204 205 207 205 203 209 216 215 214 214 213
327 326 326 325 325 325 320 317 320 319 317 319 314 287 247 300 304 295 287 276 293 300 287 266 255 251 250 246 244 240 231 226 220 196 181 178 180 182 169 154 154 136 143 189 174 168 197 236 235 168 140 125 113 129 136 125 155 180 178 221 229 194 248 206 122 29 39 276 245 145 153 66 68 139 174 194 189 163 183 199 205 210 218 222 220 218 216 217
325 324 323 323 323 323 319 314 317 314 310 322 311 255 264 308 312 305 284 257 287 299 286 268 253 254 250 239 229 214 207 211 212 197 186 181 174 173 175 153 140 151 178 183 172 194 221 275 104 125 145 155 131 137 163 168 197 217 213 221 229 205 225 242 360 341 167 69 69 123 131 85 101 170 192 168 81 122 152 185 201 216 228 228 224 223 220 220
325 322 320 320 319 321 319 312 312 301 296 314 294 244 281 307 316 318 297 267 284 278 281 266 245 259 233 201 194 193 197 211 212 193 185 187 178 163 161 155 167 192 176 150 147 212 245 172 137 128 131 160 149 166 194 191 196 232 218 217 223 214 218 259 321 240 181 126 69 116 168 143 100 191 192 181 184 178 166 199 211 218 228 228 224 224 221 221
325 320 318 317 316 318 317 311 304 293 300 304 262 253 290 307 318 316 312 360 291 264 274 232 234 212 174 183 177 168 174 208 212 195 185 193 188 171 149 143 180 197 156 147 156 234 236 138 151 149 141 168 184 214 209 190 187 231 215 205 208 204 208 244 242 208 186 131 94 313 222 152 120 171 185 184 198 196 183 207 218 218 223 226 225 224 222 221
325 320 316 313 313 314 313 307 294 294 298 277 255 274 288 304 321 313 320 360 285 272 144 177 233 150 164 180 164 155 151 170 180 190 188 190 187 183 181 163 180 171 146 151 187 215 148 127 118 126 128 157 194 225 201 182 183 206 174 167 174 187 203 205 197 182 165 56 143 356 319 161 131 139 182 186 192 199 205 209 213 215 220 224 223 222 221 220
326 321 315 310 309 309 307 302 295 295 281 240 248 271 286 302 313 292 14 360 277 22 132 182 139 144 146 167 169 168 75 146 156 189 189 186 181 182 196 197 188 168 152 178 199 180 136 169 172 151 133 178 206 222 177 176 191 269 128 132 145 158 174 174 156 116 60 231 180 68 356 195 144 110 161 178 189 205 216 216 213 212 216 221 221 219 217 218
326 321 314 308 304 302 299 296 295 293 240 211 225 252 278 285 272 131 73 327 244 37 72 164 139 146 127 152 188 214 11 131 136 175 180 183 182 179 190 194 173 133 133 218 221 213 111 205 184 159 179 218 219 215 171 179 194 147 134 104 96 94 83 97 125 111 92 233 192 37 350 221 165 107 134 167 185 204 221 225 223 219 218 220 224 223 219 222
325 321 315 308 301 297 294 292 293 283 222 202 211 237 260 232 191 78 98 262 265 24 73 161 160 157 136 133 211 243 254 360 86 142 161 175 180 169 133 165 146 128 141 342 254 253 360 243 184 187 214 176 113 77 136 169 121 147 144 101 95 79 57 59 38 73 175 213 175 6 338 281 185 175 185 175 151 275 282 265 257 247 235 226 227 228 224 225
325 321 316 309 301 293 290 286 291 280 214 200 208 212 189 153 90 113 198 267 302 344 48 135 129 126 147 148 212 225 221 318 106 139 152 157 171 154 118 149 127 124 173 300 247 291 336 231 222 225 195 132 105 87 54 35 115 154 147 121 134 72 41 109 42 119 198 190 83 360 328 275 206 180 231 271 338 345 299 281 291 281 257 238 230 228 225 223
325 321 317 309 299 288 285 282 276 247 198 193 206 198 171 151 185 200 231 328 357 181 41 329 290 98 159 196 199 187 178 184 158 153 154 147 169 175 174 181 165 156 212 222 221 335 260 225 281 298 191 169 139 100 95 77 144 170 128 144 171 158 171 205 195 204 213 188 52 340 306 245 238 278 299 298 328 344 315 289 282 276 271 263 236 223 221 218
325 321 318 309 297 287 283 275 254 219 194 194 196 176 133 146 216 211 232 288 6 41 46 236 300 327 173 193 195 180 155 180 187 177 155 138 175 186 197 159 161 172 211 186 184 224 231 245 297 255 200 189 184 160 156 173 185 186 160 162 181 156 163 202 180 219 248 193 76 329 284 202 204 308 277 295 328 341 329 306 281 273 275 271 203 199 201 199
327 324 319 310 296 282 269 252 232 209 199 197 177 143 131 191 220 201 213 243 289 338 337 273 325 327 171 206 252 180 177 201 174 164 161 139 173 198 201 188 187 164 97 148 185 186 209 236 200 196 176 176 190 191 157 141 157 181 148 157 181 169 180 212 201 199 207 146 96 160 214 182 158 69 321 312 337 357 354 344 333 324 109 115 127 148 162 168
330 326 320 306 284 267 254 236 215 202 200 190 156 133 176 197 226 180 202 235 264 305 319 7 10 293 185 273 298 185 198 227 131 148 168 158 178 191 180 195 201 167 138 180 209 134 214 255 253 278 323 175 197 183 107 116 135 129 76 153 187 185 155 139 163 156 167 137 120 174 218 272 210 325 318 320 2 25 23 30 77 97 108 110 113 121 132 145
333 327 313 277 258 267 259 230 206 198 194 179 153 199 199 211 218 175 180 174 131 360 308 323 81 193 260 276 274 221 199 145 91 150 182 177 196 183 177 204 189 179 178 179 190 149 164 255 296 342 25 272 263 163 110 168 162 131 170 180 174 91 112 118 122 50 23 205 173 149 197 191 212 228 222 200 77 61 52 76 101 113 121 119 120 128 137 151
336 326 302 278 295 286 266 236 207 194 186 175 183 208 206 237 194 183 206 130 128 74 27 283 322 216 243 235 242 268 221 104 80 196 184 180 215 180 195 227 182 192 201 185 213 222 198 234 330 37 119 30 353 121 88 27 86 145 181 163 136 80 80 113 159 89 141 214 178 113 152 180 197 178 159 170 153 125 115 118 122 131 134 128 129 138 145 153
338 324 307 340 328 300 271 239 205 188 174 170 218 216 205 214 188 181 140 101 116 63 83 194 278 344 318 229 275 294 263 173 114 260 171 182 236 156 175 220 179 201 214 186 191 235 202 235 311 272 177 32 8 130 113 52 29 26 149 133 133 192 163 158 166 148 183 202 167 148 194 232 211 186 150 180 156 131 130 133 135 130 118 107 110 127 138 144
337 327 344 349 340 320 280 215 187 177 166 170 216 209 204 216 222 222 203 82 110 115 94 223 241 341 317 225 238 296 276 202 147 134 136 193 259 143 335 262 179 207 229 190 187 132 141 239 233 191 322 355 360 206 177 130 56 51 116 116 39 283 178 173 154 168 189 190 165 159 190 227 206 327 309 228 113 125 144 143 137 118 88 85 104 123 135 141
341 348 10 350 346 344 221 170 166 166 166 197 203 189 204 221 250 240 223 230 199 180 237 192 168 269 252 252 253 245 286 206 152 156 147 149 271 180 316 320 172 291 201 164 175 110 101 212 218 309 324 218 185 333 233 181 125 127 151 154 136 86 100 173 113 38 190 174 166 170 193 205 111 5 300 311 24 129 159 146 129 98 83 113 137 139 139 141
3 98 3 350 358 64 117 141 147 161 171 162 184 189 267 222 278 253 213 205 214 231 239 177 180 238 214 266 259 204 287 252 158 155 159 162 192 110 6 337 305 287 81 117 146 160 138 171 191 199 201 188 91 22 290 236 193 182 177 174 155 130 148 170 164 154 351 161 169 179 188 161 65 354 302 306 319 288 199 146 126 106 104 118 143 153 140 139
37 69 350 351 62 85 92 137 103 357 151 81 241 216 259 246 274 281 210 201 223 248 268 182 212 226 203 238 251 217 260 249 166 171 198 171 166 163 46 346 336 337 92 96 140 147 123 122 133 115 96 172 40 37 251 206 134 124 66 122 149 137 150 175 188 175 143 133 144 176 188 142 46 358 330 317 310 291 226 151 127 116 119 121 130 136 130 131
48 42 11 11 106 30 25 157 354 2 184 332 296 222 259 243 224 268 100 61 246 221 60 206 215 217 217 242 232 210 237 237 185 190 195 157 168 184 37 16 6 4 75 42 360 50 134 92 92 114 82 333 241 177 191 122 120 103 54 54 146 136 103 140 174 155 154 159 145 175 193 137 49 4 357 356 14 64 140 136 127 126 128 128 130 127 123 121
44 43 36 35 348 337 11 141 344 333 287 326 354 3 325 285 19 297 209 52 20 77 140 227 162 205 314 46 126 180 247 233 257 12 65 139 130 347 7 51 82 39 9 42 153 61 360 338 56 129 139 140 168 188 200 152 85 75 57 360 327 98 106 121 102 124 174 182 163 191 192 127 67 21 22 22 46 78 84 101 115 120 122 125 124 122 121 119
22 40 37 36 44 53 62 74 278 241 307 324 10 19 354 344 18 15 88 76 42 58 91 329 338 332 7 70 98 47 26 360 351 30 15 41 77 17 2 39 99 101 65 93 117 104 84 49 328 171 172 180 174 177 200 155 124 85 69 9 359 74 134 139 132 174 191 174 170 208 171 125 88 26 26 23 35 61 62 67 83 89 94 103 105 109 113 114
32 35 7 21 45 54 51 37 20 6 306 330 44 20 355 314 347 18 55 66 41 45 55 12 347 325 49 71 116 63 26 5 17 72 46 11 37 15 12 41 72 92 102 101 98 94 100 80 16 30 99 143 156 360 320 303 112 75 51 24 6 335 305 121 135 176 177 150 163 241 122 138 112 15 14 16 21 41 48 49 61 73 81 88 91 96 100 98
54 47 338 340 29 33 30 27 20 8 337 2 45 4 354 339 324 6 36 52 48 43 58 42 20 18 324 51 122 89 12 9 34 48 30 354 302 313 22 55 54 44 90 105 94 91 94 60 21 35 57 60 53 40 16 37 68 53 27 7 357 341 319 5 110 122 133 149 170 190 114 137 97 14 5 8 10 26 40 39 53 71 84 91 91 90 89 84
56 67 25 25 22 352 5 8 360 6 22 26 54 19 6 14 24 20 5 18 50 30 16 48 25 16 339 254 144 85 7 18 39 20 345 2 346 319 21 57 38 23 39 108 88 101 115 81 7 40 60 55 44 42 46 62 80 66 45 26 3 5 27 61 58 12 12 142 149 126 111 97 62 18 8 11 9 26 44 51 71 83 90 93 89 84 80 74
55 74 44 53 68 32 20 347 333 10 31 17 33 30 13 16 25 22 351 336 42 14 9 66 20 8 13 23 119 90 25 34 58 27 347 8 18 6 28 54 3 8 26 78 27 77 120 127 147 114 69 29 11 13 33 53 65 55 46 40 26 33 54 68 61 51 79 78 78 102 99 81 43 5 14 18 19 54 66 67 73 78 84 88 85 80 77 74
49 50 27 55 61 33 30 2 331 13 31 10 23 25 14 13 8 5 17 27 36 359 6 47 15 1 28 46 68 84 38 12 47 34 348 338 23 31 43 88 347 345 1 62 9 352 103 154 170 127 87 9 341 348 15 45 53 46 34 21 21 39 52 60 60 54 76 88 95 96 91 80 45 28 39 42 49 66 67 63 61 61 71 81 80 75 75 76
45 41 29 61 43 359 9 6 342 25 31 11 16 8 9 10 351 341 48 50 58 46 352 347 345 344 30 42 54 64 15 325 292 315 314 316 358 15 17 74 20 329 352 30 355 330 67 127 154 124 129 185 292 347 14 39 40 19 355 360 8 19 39 57 60 17 18 123 131 112 94 92 82 68 65 61 63 66 62 58 60 60 66 75 76 72 74 76
38 42 39 71 63 8 5 356 359 35 39 3 6 5 360 351 346 358 77 42 36 41 19 352 336 329 37 41 29 349 322 307 288 295 297 289 290 296 332 39 55 356 345 2 4 358 103 146 151 142 157 165 117 83 61 49 25 308 289 50 31 44 96 85 52 22 359 317 152 121 112 118 118 105 85 68 62 63 59 57 63 67 70 75 76 74 74 74